Regional Weather Roundup
Issued by NWS Little Rock, AR

Home | Current Version | Previous Version | Graphics & Text | Print | Product List | Glossary On
Versions: 1 2 3 4 5 6 7 8 9 10 11 12 13 14 15 16 17 18 19 20 21 22 23 24 25 26 27 28 29 30 31 32 33 34 35 36 37 38 39 40 41 42 43 44 45 46 47 48 49 50
000
ASUS44 KLZK 232105
RWRLZK

WEATHER ROUNDUP FOR ARKANSAS
NATIONAL WEATHER SERVICE LITTLE ROCK AR
400 PM CDT SAT MAY 23 2015

NOTE: "FAIR" INDICATES FEW OR NO CLOUDS BELOW 12,000 FEET WITH NO
SIGNIFICANT WEATHER AND/OR OBSTRUCTIONS TO VISIBILITY.

ARZ001-003-010-029-232200-
NORTHWEST ARKANSAS

CITY           SKY/WX    TMP DP  RH WIND       PRES   REMARKS
FAYETTEVILLE   PTSUNNY   74  65  73 SE12      30.11F
FORT SMITH     CLOUDY    75  64  68 E9        30.09F
HARRISON       CLOUDY    70  62  76 SE10      30.16F
BENTONVILLE    PTSUNNY   75  63  64 SE12G17   30.11F
ROGERS         PTSUNNY   75  64  68 SE10G18   30.12F
SILOAM SPGS    PTSUNNY   73  63  68 S15G21    30.12S
HIGHFILL       PTSUNNY   76  64  66 SE16      30.10F
SPRINGDALE     PTSUNNY   75  64  69 SE12G18   30.13F
$$

ARZ004-005-016-232200-
NORTH CENTRAL ARKANSAS

CITY           SKY/WX    TMP DP  RH WIND       PRES   REMARKS
BATESVILLE     SUNNY     81  57  44 E13       30.18F
FLIPPIN        PTSUNNY   70  61  73 E10       30.15F
MTN HOME       PTSUNNY   73  60  63 SE8       30.17F
$$

ARZ040-041-232200-
WEST CENTRAL ARKANSAS

CITY           SKY/WX    TMP DP  RH WIND       PRES   REMARKS
MENA           CLOUDY    81  70  69 E8        30.10F
MOUNT IDA      PTSUNNY   80  67  64 VRB7      30.10F
$$

ARZ009-017-025-026-028-232200-
NORTHEAST ARKANSAS

CITY           SKY/WX    TMP DP  RH WIND       PRES   REMARKS
CORNING          N/A     77  55  47 E6        30.21F
JONESBORO      SUNNY     79  54  41 SE10      30.19F
NEWPORT        MOSUNNY   80  61  52 SE10      30.19F
WALNUT RIDGE   SUNNY     79  55  44 E8        30.20F
BLYTHEVILLE    SUNNY     79  56  45 E8        30.21F
$$

ARZ022-023-033-042-044-232200-
CENTRAL ARKANSAS

CITY           SKY/WX    TMP DP  RH WIND       PRES   REMARKS
LITTLE ROCK    PTSUNNY   82  62  50 E12       30.15F
N LITTLE ROCK  PTSUNNY   78  66  66 SE12G17   30.15F
JACKSONVILLE   MOSUNNY   80  64  59 SE8       30.15F
SEARCY         PTSUNNY   80  63  55 E12       30.18F
HOT SPRINGS    MOSUNNY   81  66  60 SE12      30.12F
RUSSELLVILLE   PTSUNNY   77  63  61 E10       30.13F
CLINTON        FAIR      77  64  65 SE7       30.17F
$$

ARZ036-232200-
EAST ARKANSAS

CITY           SKY/WX    TMP DP  RH WIND       PRES   REMARKS
WEST MEMPHIS   SUNNY     80  58  46 S9        30.18F
$$

ARZ050-053-066-070-073-232200-
SOUTHWEST ARKANSAS

CITY           SKY/WX    TMP DP  RH WIND       PRES   REMARKS
ARKADELPHIA    FAIR      87  71  58 VRB6      30.10F HX  92
CAMDEN         MOSUNNY   86  64  48 NE8G18    30.10F HX  87
TEXARKANA      MOSUNNY   84  70  62 SE10G17   30.06F HX  88
EL DORADO      MOSUNNY   85  68  56 SE9       30.11F HX  88
DE QUEEN       PTSUNNY   83  70  64 SE12      30.04F HX  87
$$

ARZ056-057-069-232200-
SOUTHEAST ARKANSAS

CITY           SKY/WX    TMP DP  RH WIND       PRES   REMARKS
PINE BLUFF     MOSUNNY   82  65  56 SE14      30.14F
STUTTGART      MOSUNNY   81  63  54 MISG      30.16F
MONTICELLO     MOSUNNY   84  65  52 VRB6      30.14F HX  86

$$





USA.gov is the U.S. government's official web portal to all federal, state and local government web resources and services.